Flag for Guyana Weather past 2 weeks in Georgetown, Guyana

77 °F

Passing clouds.

Feels Like: 78 °F
Forecast: 78 / 86 °F
Wind: 2 mph from East

Location: Georgetown/Cheddi Jagan International Airport

Current Time: Nov 26, 2015 at 9:14:15 PM

Latest Report: Nov 26, 2015 at 9:00 PM

Visibility: N/A

Pressure: 29.89 "Hg

Humidity: 94%

Dew point: 75 °F

Location of GeorgetownLocation

Historic Weather in Georgetown — Graph


Georgetown temperature yesterday

Maximum temperature yesterday: 84 °F (at 9:00 AM)
Minimum temperature yesterday: 73 °F (at 2:00 AM)
Average temperature yesterday: 77 °F

Past Weeks' High & Low Weather Summary

High91 °F (Nov 15, 1:00 PM)100% (Nov 11, 11:00 PM)29.98 "Hg (Nov 11, 11:00 PM)
Low72 °F (Nov 13, 3:00 AM)52% (Nov 14, 1:00 PM)29.71 "Hg (Nov 20, 2:00 PM)
Average79 °F89%29.84 "Hg
* Reported Nov 11 8:00 PM — Nov 26 8:00 PM, Georgetown, Weather by CustomWeather, © 2015

Note: Actual official high and low records may vary slightly from our data, if they occured in-between our weather recording intervals... More about our weather records


Georgetown weather history for previous 24 hours

Time TempWeatherWind HumidityBarometerVisibility
8:00 PM
Thu, Nov 26
77 °FPassing clouds.2 mph94%29.86 "HgN/A
7:00 PM79 °FPartly cloudy.2 mph89%29.83 "HgN/A
6:00 PM79 °FPartly cloudy.6 mph94%29.80 "HgN/A
5:00 PM81 °FBroken clouds.7 mph89%29.80 "HgN/A
2:00 PM82 °FSprinkles. Broken clouds.5 mph89%29.83 "Hg6 mi
1:00 PM77 °FRain. Mostly cloudy.7 mph94%29.86 "Hg3 mi
12:00 PM79 °FPartly sunny.7 mph94%29.89 "HgN/A
11:00 AM77 °FLight rain. Mostly cloudy.7 mph100%29.92 "Hg4 mi
10:00 AM75 °FLight rain. Mostly cloudy.2 mph100%29.92 "Hg5 mi
9:00 AM75 °FThunderstorms. Mostly cloudy.2 mph100%29.92 "Hg4 mi
8:00 AM75 °FThunderstorms. Partly sunny.2 mph100%29.89 "Hg4 mi
7:00 AM75 °FPartly sunny.7 mph100%29.89 "Hg4 mi
6:00 AM75 °FSprinkles. Partly sunny.No wind100%29.83 "Hg5 mi
5:00 AM75 °FPassing clouds.No wind100%29.83 "HgN/A
4:00 AM75 °FSprinkles. Passing clouds.No wind100%29.83 "Hg6 mi
3:00 AM72 °FClear.No wind100%29.89 "Hg10 mi
2:00 AM75 °FFog.No wind100%29.83 "Hg3 mi
1:00 AM75 °FPartly cloudy.No wind100%29.83 "Hg10 mi
12:00 AM75 °FPartly cloudy.No wind100%29.89 "HgN/A
11:00 PM
Wed, Nov 25
77 °FClear.No wind94%29.92 "Hg10 mi
10:00 PM77 °FClear.2 mph94%29.92 "Hg10 mi
9:00 PM75 °FPassing clouds.No wind100%29.89 "Hg10 mi
Weather by CustomWeather, © 2015

See weather overviewHow to use our weather pages